CEB069 RPLL-RPVA

Flight info

Callsign CEB069
Flight time N/A
Altitude 31000
Route IPATA2R IPATA B462 ARREX ARREX2R
Aircraft A320/M-V/N

Departure

Time 2026-04-30 14:07
Airport Ninoy Aquino International Airport (RPLL)

Arrival

Time N/A
Airport Daniel Z. Romualdez Airport (RPVA)
Time Latitude Longitude Altitude Speed Heading
2026-04-30 13:21 14.50827 121.01273 61 ft 0 kts 330°
2026-04-30 13:49 14.50826 121.01273 68 ft 1 kts 330°
2026-04-30 13:50 14.50807 121.01285 66 ft 4 kts 328°
2026-04-30 13:50 14.50771 121.01312 59 ft 4 kts 309°
2026-04-30 13:50 14.50761 121.01333 61 ft 4 kts 250°
2026-04-30 13:51 14.50772 121.01355 60 ft 4 kts 237°
2026-04-30 13:51 14.50776 121.01360 60 ft 0 kts 237°
2026-04-30 13:53 14.50775 121.01360 60 ft 1 kts 237°
2026-04-30 13:54 14.50762 121.01338 62 ft 4 kts 239°
2026-04-30 13:54 14.50737 121.01313 67 ft 8 kts 203°
2026-04-30 13:54 14.50664 121.01308 64 ft 11 kts 215°
2026-04-30 13:54 14.50629 121.01249 62 ft 9 kts 240°
2026-04-30 13:55 14.50601 121.01198 64 ft 8 kts 240°
2026-04-30 13:55 14.50577 121.01155 67 ft 6 kts 240°
2026-04-30 13:55 14.50556 121.01118 65 ft 6 kts 240°
2026-04-30 13:55 14.50530 121.01070 64 ft 7 kts 240°
2026-04-30 13:56 14.50506 121.01026 64 ft 9 kts 240°
2026-04-30 13:56 14.50474 121.00969 61 ft 9 kts 240°
2026-04-30 13:56 14.50445 121.00917 66 ft 9 kts 240°
2026-04-30 13:56 14.50407 121.00849 61 ft 13 kts 240°
2026-04-30 13:57 14.50365 121.00773 63 ft 11 kts 240°
2026-04-30 13:57 14.50328 121.00706 64 ft 10 kts 240°
2026-04-30 13:57 14.50307 121.00669 65 ft 5 kts 240°
2026-04-30 13:57 14.50291 121.00640 63 ft 7 kts 240°
2026-04-30 13:58 14.50254 121.00574 68 ft 12 kts 240°
2026-04-30 13:58 14.50183 121.00446 62 ft 9 kts 240°
2026-04-30 13:58 14.50156 121.00398 60 ft 7 kts 240°
2026-04-30 13:59 14.50136 121.00361 62 ft 5 kts 240°
2026-04-30 13:59 14.50116 121.00327 65 ft 7 kts 240°
2026-04-30 13:59 14.50085 121.00270 65 ft 8 kts 240°
2026-04-30 13:59 14.50060 121.00226 64 ft 7 kts 240°
2026-04-30 14:00 14.50040 121.00189 68 ft 5 kts 240°
2026-04-30 14:00 14.50012 121.00139 63 ft 3 kts 240°
2026-04-30 14:00 14.50005 121.00127 63 ft 1 kts 240°
2026-04-30 14:01 14.49987 121.00095 66 ft 9 kts 240°
2026-04-30 14:01 14.49962 121.00049 64 ft 6 kts 240°
2026-04-30 14:01 14.49944 121.00016 65 ft 5 kts 240°
2026-04-30 14:01 14.49930 120.99992 63 ft 3 kts 240°
2026-04-30 14:02 14.49919 120.99976 64 ft 2 kts 231°
2026-04-30 14:02 14.49908 120.99967 62 ft 4 kts 215°
2026-04-30 14:02 14.49882 120.99964 69 ft 3 kts 163°
2026-04-30 14:02 14.49878 120.99966 69 ft 0 kts 156°
2026-04-30 14:05 14.49859 120.99974 69 ft 7 kts 156°
2026-04-30 14:05 14.49803 121.00017 67 ft 12 kts 115°
2026-04-30 14:05 14.49833 121.00091 60 ft 11 kts 54°
2026-04-30 14:05 14.49843 121.00107 64 ft 0 kts 59°
2026-04-30 14:06 14.49930 121.00266 58 ft 62 kts 61°
2026-04-30 14:07 14.50769 121.01772 74 ft 170 kts 59°
2026-04-30 14:07 14.51396 121.02867 526 ft 181 kts 62°
2026-04-30 14:07 14.52028 121.04029 1100 ft 189 kts 62°
2026-04-30 14:08 14.53327 121.06501 2268 ft 208 kts 61°
2026-04-30 14:08 14.54058 121.07850 2774 ft 222 kts 60°
2026-04-30 14:08 14.55678 121.10774 3780 ft 253 kts 60°
2026-04-30 14:09 14.56581 121.12375 4457 ft 261 kts 63°
2026-04-30 14:09 14.57247 121.14133 5209 ft 266 kts 76°
2026-04-30 14:09 14.57759 121.17984 6728 ft 274 kts 82°
2026-04-30 14:10 14.57837 121.19930 7456 ft 278 kts 97°
2026-04-30 14:10 14.57195 121.21821 8222 ft 283 kts 121°
2026-04-30 14:10 14.55842 121.23311 9000 ft 288 kts 139°
2026-04-30 14:10 14.54287 121.24624 9806 ft 289 kts 139°
2026-04-30 14:11 14.52701 121.25951 10319 ft 301 kts 139°
2026-04-30 14:11 14.51013 121.27363 10495 ft 324 kts 139°
2026-04-30 14:11 14.49214 121.28869 10847 ft 338 kts 139°
2026-04-30 14:11 14.47370 121.30410 11448 ft 343 kts 139°
2026-04-30 14:12 14.45507 121.31965 12131 ft 346 kts 140°
2026-04-30 14:12 14.43651 121.33516 12755 ft 349 kts 139°
2026-04-30 14:12 14.41762 121.35100 13404 ft 351 kts 139°
2026-04-30 14:12 14.40500 121.36162 13785 ft 353 kts 140°
2026-04-30 14:13 14.37935 121.38322 14479 ft 357 kts 140°
2026-04-30 14:13 14.35997 121.39954 15002 ft 361 kts 140°
2026-04-30 14:13 14.34041 121.41602 15522 ft 364 kts 140°
2026-04-30 14:13 14.32089 121.43247 16070 ft 367 kts 140°
2026-04-30 14:14 14.30108 121.44911 16616 ft 369 kts 140°
2026-04-30 14:14 14.28108 121.46587 17160 ft 371 kts 140°
2026-04-30 14:14 14.26091 121.48277 17643 ft 374 kts 140°
2026-04-30 14:14 14.24062 121.49977 18165 ft 377 kts 140°
2026-04-30 14:15 14.22021 121.51689 18600 ft 380 kts 140°
2026-04-30 14:15 14.19990 121.53392 19074 ft 381 kts 140°
2026-04-30 14:15 14.17924 121.55126 19512 ft 383 kts 140°
2026-04-30 14:15 14.15851 121.56865 20014 ft 384 kts 140°
2026-04-30 14:16 14.13764 121.58614 20419 ft 388 kts 140°
2026-04-30 14:16 14.11663 121.60370 20825 ft 390 kts 141°
2026-04-30 14:16 14.09543 121.62141 21222 ft 393 kts 141°
2026-04-30 14:16 14.07410 121.63926 21600 ft 397 kts 140°
2026-04-30 14:17 14.05268 121.65720 22039 ft 398 kts 141°
2026-04-30 14:17 14.03113 121.67525 22463 ft 400 kts 141°
2026-04-30 14:17 14.00951 121.69335 22902 ft 402 kts 141°
2026-04-30 14:17 13.98771 121.71160 23259 ft 405 kts 141°
2026-04-30 14:18 13.96576 121.72997 23633 ft 408 kts 141°
2026-04-30 14:18 13.94365 121.74845 23915 ft 411 kts 141°
2026-04-30 14:18 13.90311 121.78237 24507 ft 414 kts 141°
2026-04-30 14:19 13.85914 121.82119 25144 ft 418 kts 133°
2026-04-30 14:19 13.83961 121.84362 25442 ft 421 kts 132°
2026-04-30 14:19 13.82023 121.86596 25692 ft 425 kts 132°
2026-04-30 14:20 13.80045 121.88867 26011 ft 427 kts 132°
2026-04-30 14:20 13.78061 121.91143 26329 ft 428 kts 133°
2026-04-30 14:20 13.74053 121.95742 26873 ft 434 kts 133°
2026-04-30 14:21 13.72035 121.98060 27115 ft 437 kts 133°
2026-04-30 14:21 13.70002 122.00395 27405 ft 439 kts 133°
2026-04-30 14:21 13.65896 122.05103 27960 ft 444 kts 133°
2026-04-30 14:22 13.63829 122.07472 28251 ft 446 kts 133°
2026-04-30 14:22 13.59664 122.12244 28846 ft 449 kts 132°
2026-04-30 14:22 13.57575 122.14641 29129 ft 451 kts 133°
2026-04-30 14:23 13.53371 122.19463 29660 ft 455 kts 133°
2026-04-30 14:23 13.49147 122.24304 30145 ft 459 kts 133°
2026-04-30 14:24 13.44860 122.29202 30578 ft 462 kts 133°
2026-04-30 14:24 13.42707 122.31663 30793 ft 463 kts 133°
2026-04-30 14:25 13.38419 122.36571 30985 ft 451 kts 133°
2026-04-30 14:25 13.34326 122.41255 30988 ft 437 kts 133°
2026-04-30 14:26 13.28227 122.48202 30982 ft 436 kts 133°
2026-04-30 14:27 13.22151 122.55135 30987 ft 434 kts 133°
2026-04-30 14:27 13.18109 122.59744 30984 ft 434 kts 133°
2026-04-30 14:28 13.12068 122.66629 30979 ft 434 kts 133°
2026-04-30 14:28 13.08020 122.71227 30978 ft 434 kts 133°